Home > Weather > Visalia > Past weeks

Flag for U.S.A. Weather for the Past 2 Weeks in Visalia, California, U.S.A.

Now
41 °F

Fog.


Feels Like: 41 °F
Forecast: 38 / 62 °F
Wind: No wind

Location: Visalia Municipal

Current Time: Feb 5, 2016 at 11:30:38 PM

Latest Report: Feb 5, 2016 at 11:03 PM


Visibility: 2 mi

Pressure: 30.43 "Hg

Humidity: 93%

Dew point: 39 °F

Location of VisaliaLocation

Historic Weather in Visalia — Graph

°F

Visalia Temperature Yesterday

Maximum temperature yesterday: 56 °F (at 2:56 PM)
Minimum temperature yesterday: 33 °F (at 6:56 AM)
Average temperature yesterday: 44 °F

High & Low Weather Summary for the Past Weeks

 TemperatureHumidityPressure
High63 °F (Jan 22, 1:56 PM)100% (Jan 22, 12:03 AM)30.50 "Hg (Jan 22, 12:03 AM)
Low30 °F (Feb 3, 6:56 AM)49% (Feb 3, 2:56 PM)29.71 "Hg (Jan 31, 12:56 PM)
Average47 °F85%30.24 "Hg
* Reported Jan 21 9:56 PM — Feb 5 9:56 PM, Visalia, Weather by CustomWeather, © 2016

Note: Actual official high and low records may vary slightly from our data, if they occured in-between our weather recording intervals... More about our weather records

Advertising

Visalia Weather History for the Previous 24 Hours

 ConditionsComfort  
Time TempWeatherWind HumidityBarometerVisibility
9:56 PM
Fri, Feb 5
45 °FFog.3 mph93%30.45 "Hg5 mi
8:56 PM47 °FClear.No wind86%30.44 "Hg7 mi
7:56 PM50 °FClear.No wind83%30.42 "Hg10 mi
6:56 PM52 °FClear.No wind80%30.41 "Hg10 mi
5:56 PM55 °FClear.5 mph72%30.40 "Hg10 mi
4:56 PM59 °FSunny.3 mph58%30.39 "Hg10 mi
3:56 PM61 °FSunny.3 mph52%30.41 "Hg10 mi
2:56 PM61 °FSunny.3 mph54%30.44 "Hg10 mi
1:56 PM59 °FSunny.No wind56%30.45 "Hg10 mi
12:56 PM57 °FSunny.No wind62%30.46 "Hg10 mi
11:56 AM56 °FSunny.5 mph67%30.48 "Hg9 mi
10:56 AM51 °FSunny.6 mph74%30.49 "Hg9 mi
9:56 AM48 °FSunny.6 mph80%30.49 "Hg10 mi
8:56 AM43 °FSunny.5 mph89%30.50 "Hg8 mi
7:56 AM37 °FFog.3 mph96%30.49 "Hg4 mi
6:56 AM34 °FFog.No wind97%30.46 "Hg2 mi
6:04 AM34 °FFog.3 mph100%30.43 "Hg2 mi
5:56 AM35 °FFog.3 mph96%30.45 "Hg3 mi
4:56 AM35 °FFog.3 mph96%30.46 "Hg2 mi
3:56 AM36 °FFog.No wind97%30.45 "Hg2 mi
3:04 AM36 °FFog.No wind100%30.42 "Hg3 mi
2:56 AM37 °FFog.No wind100%30.45 "Hg2 mi
1:56 AM39 °FFog.No wind96%30.45 "Hg4 mi
12:56 AM37 °FFog.3 mph96%30.44 "Hg2 mi
11:56 PM
Thu, Feb 4
41 °FFog.3 mph93%30.44 "Hg4 mi
Weather by CustomWeather, © 2016

See weather overviewHow to use our weather pages